Powrót do katalogu

STARLINK-31634

AktywnyŁącznośćVLEO
NORAD 59330·PAYLOAD·🇺🇸 United States

Wystrzelony Mar 25, 2024 z Cape Canaveral Space Force Station

Loading…

Następne Przeloty (najbliższe 24 godziny)

TLE

ŚwieżeSource: CelesTrak SupGP

Epoka: Sep 15, 2026, 02:32 UTC

1 59330C 24057L   26258.10604167 -.00051985  00000+0 -18833-2 0  2588
2 59330  43.0026 197.5710 0001397 273.2638 145.1260 15.27596504    12

Śledź STARLINK-31634 w czasie rzeczywistym z AllMySat

Download on the App Store